Tracking 23726 objects as of 22-Sep-2021
HD Live streaming from Space Station
objects crossing your sky now

ORBCOMM FM 111

Track ORBCOMM FM 111 now!
10-day predictions
ORBCOMM FM 111 is classified as:


NORAD ID: 40089
Int'l Code: 2014-040D
Perigee: 619.2 km
Apogee: 669.7 km
Inclination: 47.0 °
Period: 97.5 minutes
Semi major axis: 7015 km
RCS: Unknown
Launch date: July 14, 2014
Source: United States (US)
Launch site: AIR FORCE EASTERN TEST RANGE (AFETR)
aabbcc
Your satellite tracking list
Your tracking list is empty




NASA's NSSDC Master Catalog

Two Line Element Set (TLE):
1 40089U 14040D   21265.32913161  .00000097  00000-0  41968-4 0  9990
2 40089  47.0059 242.8002 0035982 199.6217 160.3294 14.77470969388130
Source of the keplerian elements: AFSPC